owner,sensor,date,latitude,longitude,air_pressure(mBar),qcFlag 
COMPS,ioos:station:USF.COMPS:C12:1,2016-10-01T00:05:00Z,27.4980,-83.7220,1012.63,1111122 
COMPS,ioos:station:USF.COMPS:C12:1,2016-10-01T00:35:00Z,27.4980,-83.7220,1013.18,1111122 
COMPS,ioos:station:USF.COMPS:C12:1,2016-10-01T01:05:00Z,27.4980,-83.7220,1013.47,1111122 
COMPS,ioos:station:USF.COMPS:C12:1,2016-10-01T01:35:00Z,27.4980,-83.7220,1013.71,1111122 
COMPS,ioos:station:USF.COMPS:C12:1,2016-10-01T02:05:00Z,27.4980,-83.7220,1013.87,1111122 
COMPS,ioos:station:USF.COMPS:C12:1,2016-10-01T02:35:00Z,27.4980,-83.7220,1014.08,1111122 
COMPS,ioos:station:USF.COMPS:C12:1,2016-10-01T03:05:00Z,27.4980,-83.7220,1014.16,1111122 
COMPS,ioos:station:USF.COMPS:C12:1,2016-10-01T03:35:00Z,27.4980,-83.7220,1014.44,1111122 
COMPS,ioos:station:USF.COMPS:C12:1,2016-10-01T04:05:00Z,27.4980,-83.7220,1014.52,1111122 
COMPS,ioos:station:USF.COMPS:C12:1,2016-10-01T04:35:00Z,27.4980,-83.7220,1014.47,1111122 
COMPS,ioos:station:USF.COMPS:C12:1,2016-10-01T05:05:00Z,27.4980,-83.7220,1014.42,1111122 
COMPS,ioos:station:USF.COMPS:C12:1,2016-10-01T05:35:00Z,27.4980,-83.7220,1014.09,1111122 
COMPS,ioos:station:USF.COMPS:C12:1,2016-10-01T06:05:00Z,27.4980,-83.7220,1013.79,1111122 
COMPS,ioos:station:USF.COMPS:C12:1,2016-10-01T06:35:00Z,27.4980,-83.7220,1013.63,1111122 
COMPS,ioos:station:USF.COMPS:C12:1,2016-10-01T07:05:00Z,27.4980,-83.7220,1013.46,1111122 
COMPS,ioos:station:USF.COMPS:C12:1,2016-10-01T07:35:00Z,27.4980,-83.7220,1013.23,1111122 
COMPS,ioos:station:USF.COMPS:C12:1,2016-10-01T08:05:00Z,27.4980,-83.7220,1013.12,1111122 
COMPS,ioos:station:USF.COMPS:C12:1,2016-10-01T08:35:00Z,27.4980,-83.7220,1012.92,1111122 
COMPS,ioos:station:USF.COMPS:C12:1,2016-10-01T09:05:00Z,27.4980,-83.7220,1012.92,1111122 
COMPS,ioos:station:USF.COMPS:C12:1,2016-10-01T09:35:00Z,27.4980,-83.7220,1013.12,1111122 
COMPS,ioos:station:USF.COMPS:C12:1,2016-10-01T10:05:00Z,27.4980,-83.7220,1013.43,1111122 
COMPS,ioos:station:USF.COMPS:C12:1,2016-10-01T10:35:00Z,27.4980,-83.7220,1013.59,1111122 
COMPS,ioos:station:USF.COMPS:C12:1,2016-10-01T11:05:00Z,27.4980,-83.7220,1013.83,1111122 
COMPS,ioos:station:USF.COMPS:C12:1,2016-10-01T11:35:00Z,27.4980,-83.7220,1014.19,1111122 
COMPS,ioos:station:USF.COMPS:C12:1,2016-10-01T12:05:00Z,27.4980,-83.7220,1014.12,1111122 
COMPS,ioos:station:USF.COMPS:C12:1,2016-10-01T12:35:00Z,27.4980,-83.7220,1014.39,1111122 
COMPS,ioos:station:USF.COMPS:C12:1,2016-10-01T13:05:00Z,27.4980,-83.7220,1014.56,1111122 
COMPS,ioos:station:USF.COMPS:C12:1,2016-10-01T13:35:00Z,27.4980,-83.7220,1014.73,1111122 
COMPS,ioos:station:USF.COMPS:C12:1,2016-10-01T14:05:00Z,27.4980,-83.7220,1014.62,1111122 
COMPS,ioos:station:USF.COMPS:C12:1,2016-10-01T14:35:00Z,27.4980,-83.7220,1014.84,1111122 
COMPS,ioos:station:USF.COMPS:C12:1,2016-10-01T15:05:00Z,27.4980,-83.7220,1015.07,1111122 
COMPS,ioos:station:USF.COMPS:C12:1,2016-10-01T15:35:00Z,27.4980,-83.7220,1015.04,1111122 
COMPS,ioos:station:USF.COMPS:C12:1,2016-10-01T16:05:00Z,27.4980,-83.7220,1015.07,1111122 
COMPS,ioos:station:USF.COMPS:C12:1,2016-10-01T16:35:00Z,27.4980,-83.7220,1014.84,1111122 
COMPS,ioos:station:USF.COMPS:C12:1,2016-10-01T17:05:00Z,27.4980,-83.7220,1014.49,1111122 
COMPS,ioos:station:USF.COMPS:C12:1,2016-10-01T17:35:00Z,27.4980,-83.7220,1014.31,1111122 
COMPS,ioos:station:USF.COMPS:C12:1,2016-10-01T18:05:00Z,27.4980,-83.7220,1014.07,1111122 
COMPS,ioos:station:USF.COMPS:C12:1,2016-10-01T18:35:00Z,27.4980,-83.7220,1013.59,1111122 
COMPS,ioos:station:USF.COMPS:C12:1,2016-10-01T19:05:00Z,27.4980,-83.7220,1013.43,1111122 
COMPS,ioos:station:USF.COMPS:C12:1,2016-10-01T19:35:00Z,27.4980,-83.7220,1013.37,1111122 
COMPS,ioos:station:USF.COMPS:C12:1,2016-10-01T20:05:00Z,27.4980,-83.7220,1013.07,1111122 
COMPS,ioos:station:USF.COMPS:C12:1,2016-10-01T20:35:00Z,27.4980,-83.7220,1012.63,1111122 
COMPS,ioos:station:USF.COMPS:C12:1,2016-10-01T21:05:00Z,27.4980,-83.7220,1012.51,1111122 
COMPS,ioos:station:USF.COMPS:C12:1,2016-10-01T21:35:00Z,27.4980,-83.7220,1012.68,1111122 
COMPS,ioos:station:USF.COMPS:C12:1,2016-10-01T22:05:00Z,27.4980,-83.7220,1012.68,1111122 
COMPS,ioos:station:USF.COMPS:C12:1,2016-10-01T22:35:00Z,27.4980,-83.7220,1012.54,1111122 
COMPS,ioos:station:USF.COMPS:C12:1,2016-10-01T23:05:00Z,27.4980,-83.7220,1012.69,1111122 
COMPS,ioos:station:USF.COMPS:C12:1,2016-10-01T23:35:00Z,27.4980,-83.7220,1012.7,1111122 
COMPS,ioos:station:USF.COMPS:C12:1,2016-10-02T00:05:00Z,27.4980,-83.7220,1012.81,1111122 
COMPS,ioos:station:USF.COMPS:C12:1,2016-10-02T00:35:00Z,27.4980,-83.7220,1013.08,1111122 
COMPS,ioos:station:USF.COMPS:C12:1,2016-10-02T01:05:00Z,27.4980,-83.7220,1013.16,1111122 
COMPS,ioos:station:USF.COMPS:C12:1,2016-10-02T01:35:00Z,27.4980,-83.7220,1013.25,1111122 
COMPS,ioos:station:USF.COMPS:C12:1,2016-10-02T02:05:00Z,27.4980,-83.7220,1013.28,1111122 
COMPS,ioos:station:USF.COMPS:C12:1,2016-10-02T02:35:00Z,27.4980,-83.7220,1013.52,1111122 
COMPS,ioos:station:USF.COMPS:C12:1,2016-10-02T03:05:00Z,27.4980,-83.7220,1013.65,1111122 
COMPS,ioos:station:USF.COMPS:C12:1,2016-10-02T03:35:00Z,27.4980,-83.7220,1013.94,1111122 
COMPS,ioos:station:USF.COMPS:C12:1,2016-10-02T04:05:00Z,27.4980,-83.7220,1013.84,1111122 
COMPS,ioos:station:USF.COMPS:C12:1,2016-10-02T04:35:00Z,27.4980,-83.7220,1014.0,1111122 
COMPS,ioos:station:USF.COMPS:C12:1,2016-10-02T05:05:00Z,27.4980,-83.7220,1014.06,1111122 
COMPS,ioos:station:USF.COMPS:C12:1,2016-10-02T05:35:00Z,27.4980,-83.7220,1013.72,1111122 
COMPS,ioos:station:USF.COMPS:C12:1,2016-10-02T06:05:00Z,27.4980,-83.7220,1013.29,1111122 
COMPS,ioos:station:USF.COMPS:C12:1,2016-10-02T06:35:00Z,27.4980,-83.7220,1013.18,1111122 
COMPS,ioos:station:USF.COMPS:C12:1,2016-10-02T07:05:00Z,27.4980,-83.7220,1012.86,1111122 
COMPS,ioos:station:USF.COMPS:C12:1,2016-10-02T07:35:00Z,27.4980,-83.7220,1012.39,1111122 
COMPS,ioos:station:USF.COMPS:C12:1,2016-10-02T08:05:00Z,27.4980,-83.7220,1012.35,1111122 
COMPS,ioos:station:USF.COMPS:C12:1,2016-10-02T08:35:00Z,27.4980,-83.7220,1012.35,1111122 
COMPS,ioos:station:USF.COMPS:C12:1,2016-10-02T09:05:00Z,27.4980,-83.7220,1012.61,1111122 
COMPS,ioos:station:USF.COMPS:C12:1,2016-10-02T09:35:00Z,27.4980,-83.7220,1012.69,1111122 
COMPS,ioos:station:USF.COMPS:C12:1,2016-10-02T10:05:00Z,27.4980,-83.7220,1012.65,1111122 
COMPS,ioos:station:USF.COMPS:C12:1,2016-10-02T10:35:00Z,27.4980,-83.7220,1012.55,1111122 
COMPS,ioos:station:USF.COMPS:C12:1,2016-10-02T11:05:00Z,27.4980,-83.7220,1012.57,1111122 
COMPS,ioos:station:USF.COMPS:C12:1,2016-10-02T11:35:00Z,27.4980,-83.7220,1012.67,1111122 
COMPS,ioos:station:USF.COMPS:C12:1,2016-10-02T12:05:00Z,27.4980,-83.7220,1012.7,1111122 
COMPS,ioos:station:USF.COMPS:C12:1,2016-10-02T12:35:00Z,27.4980,-83.7220,1012.64,1111122 
COMPS,ioos:station:USF.COMPS:C12:1,2016-10-02T13:05:00Z,27.4980,-83.7220,1012.85,1111122 
COMPS,ioos:station:USF.COMPS:C12:1,2016-10-02T13:35:00Z,27.4980,-83.7220,1013.18,1111122 
COMPS,ioos:station:USF.COMPS:C12:1,2016-10-02T14:05:00Z,27.4980,-83.7220,1013.56,1111122 
COMPS,ioos:station:USF.COMPS:C12:1,2016-10-02T14:35:00Z,27.4980,-83.7220,1013.57,1111122 
COMPS,ioos:station:USF.COMPS:C12:1,2016-10-02T15:05:00Z,27.4980,-83.7220,1013.56,1111122 
COMPS,ioos:station:USF.COMPS:C12:1,2016-10-02T15:35:00Z,27.4980,-83.7220,1013.31,1111122 
COMPS,ioos:station:USF.COMPS:C12:1,2016-10-02T16:05:00Z,27.4980,-83.7220,1013.56,1111122 
COMPS,ioos:station:USF.COMPS:C12:1,2016-10-02T16:35:00Z,27.4980,-83.7220,1013.33,1111122 
COMPS,ioos:station:USF.COMPS:C12:1,2016-10-02T17:05:00Z,27.4980,-83.7220,1013.15,1111122 
COMPS,ioos:station:USF.COMPS:C12:1,2016-10-02T17:35:00Z,27.4980,-83.7220,1012.89,1111122 
COMPS,ioos:station:USF.COMPS:C12:1,2016-10-02T18:05:00Z,27.4980,-83.7220,1012.57,1111122 
COMPS,ioos:station:USF.COMPS:C12:1,2016-10-02T18:35:00Z,27.4980,-83.7220,1012.19,1111122 
COMPS,ioos:station:USF.COMPS:C12:1,2016-10-02T19:05:00Z,27.4980,-83.7220,1011.85,1111122 
COMPS,ioos:station:USF.COMPS:C12:1,2016-10-02T19:35:00Z,27.4980,-83.7220,1011.49,1111122 
COMPS,ioos:station:USF.COMPS:C12:1,2016-10-02T20:05:00Z,27.4980,-83.7220,1011.47,1111122 
COMPS,ioos:station:USF.COMPS:C12:1,2016-10-02T20:35:00Z,27.4980,-83.7220,1011.56,1111122 
COMPS,ioos:station:USF.COMPS:C12:1,2016-10-02T21:05:00Z,27.4980,-83.7220,1011.46,1111122 
COMPS,ioos:station:USF.COMPS:C12:1,2016-10-02T21:35:00Z,27.4980,-83.7220,1010.96,1111122 
COMPS,ioos:station:USF.COMPS:C12:1,2016-10-02T22:05:00Z,27.4980,-83.7220,1010.9,1111122 
COMPS,ioos:station:USF.COMPS:C12:1,2016-10-02T22:35:00Z,27.4980,-83.7220,1010.91,1111122 
COMPS,ioos:station:USF.COMPS:C12:1,2016-10-02T23:05:00Z,27.4980,-83.7220,1010.94,1111122 
COMPS,ioos:station:USF.COMPS:C12:1,2016-10-02T23:35:00Z,27.4980,-83.7220,1011.38,1111122 
COMPS,ioos:station:USF.COMPS:C12:1,2016-10-03T00:05:00Z,27.4980,-83.7220,1011.51,1111122 
COMPS,ioos:station:USF.COMPS:C12:1,2016-10-03T00:35:00Z,27.4980,-83.7220,1012.01,1111122 
COMPS,ioos:station:USF.COMPS:C12:1,2016-10-03T01:05:00Z,27.4980,-83.7220,1012.45,1111122 
COMPS,ioos:station:USF.COMPS:C12:1,2016-10-03T01:35:00Z,27.4980,-83.7220,1012.39,1111122 
COMPS,ioos:station:USF.COMPS:C12:1,2016-10-03T02:05:00Z,27.4980,-83.7220,1012.44,1111122 
COMPS,ioos:station:USF.COMPS:C12:1,2016-10-03T02:35:00Z,27.4980,-83.7220,1012.69,1111122 
COMPS,ioos:station:USF.COMPS:C12:1,2016-10-03T03:05:00Z,27.4980,-83.7220,1012.29,1111122 
COMPS,ioos:station:USF.COMPS:C12:1,2016-10-03T03:35:00Z,27.4980,-83.7220,1011.85,1111122 
COMPS,ioos:station:USF.COMPS:C12:1,2016-10-03T04:05:00Z,27.4980,-83.7220,1011.5,1111122 
COMPS,ioos:station:USF.COMPS:C12:1,2016-10-03T04:35:00Z,27.4980,-83.7220,1011.28,1111122 
COMPS,ioos:station:USF.COMPS:C12:1,2016-10-03T05:05:00Z,27.4980,-83.7220,1010.96,1111122 
COMPS,ioos:station:USF.COMPS:C12:1,2016-10-03T05:35:00Z,27.4980,-83.7220,1011.07,1111122 
COMPS,ioos:station:USF.COMPS:C12:1,2016-10-03T06:05:00Z,27.4980,-83.7220,1010.94,1111122 
COMPS,ioos:station:USF.COMPS:C12:1,2016-10-03T06:35:00Z,27.4980,-83.7220,1010.5,1111122 
COMPS,ioos:station:USF.COMPS:C12:1,2016-10-03T07:05:00Z,27.4980,-83.7220,1010.11,1111122 
COMPS,ioos:station:USF.COMPS:C12:1,2016-10-03T07:35:00Z,27.4980,-83.7220,1009.74,1111122 
COMPS,ioos:station:USF.COMPS:C12:1,2016-10-03T08:05:00Z,27.4980,-83.7220,1009.53,1111122 
COMPS,ioos:station:USF.COMPS:C12:1,2016-10-03T08:35:00Z,27.4980,-83.7220,1009.53,1111122 
COMPS,ioos:station:USF.COMPS:C12:1,2016-10-03T09:05:00Z,27.4980,-83.7220,1009.38,1111122 
COMPS,ioos:station:USF.COMPS:C12:1,2016-10-03T09:35:00Z,27.4980,-83.7220,1009.51,1111122 
COMPS,ioos:station:USF.COMPS:C12:1,2016-10-03T10:05:00Z,27.4980,-83.7220,1009.53,1111122 
COMPS,ioos:station:USF.COMPS:C12:1,2016-10-03T10:35:00Z,27.4980,-83.7220,1009.6,1111122 
COMPS,ioos:station:USF.COMPS:C12:1,2016-10-03T11:05:00Z,27.4980,-83.7220,1009.52,1111122 
COMPS,ioos:station:USF.COMPS:C12:1,2016-10-03T11:35:00Z,27.4980,-83.7220,1009.64,1111122 
COMPS,ioos:station:USF.COMPS:C12:1,2016-10-03T12:05:00Z,27.4980,-83.7220,1009.64,1111122 
COMPS,ioos:station:USF.COMPS:C12:1,2016-10-03T12:35:00Z,27.4980,-83.7220,1009.88,1111122 
COMPS,ioos:station:USF.COMPS:C12:1,2016-10-03T13:05:00Z,27.4980,-83.7220,1010.04,1111122 
COMPS,ioos:station:USF.COMPS:C12:1,2016-10-03T13:35:00Z,27.4980,-83.7220,1010.59,1111122 
COMPS,ioos:station:USF.COMPS:C12:1,2016-10-03T14:05:00Z,27.4980,-83.7220,1010.44,1111122 
COMPS,ioos:station:USF.COMPS:C12:1,2016-10-03T14:35:00Z,27.4980,-83.7220,1010.43,1111122 
COMPS,ioos:station:USF.COMPS:C12:1,2016-10-03T15:05:00Z,27.4980,-83.7220,1010.68,1111122 
COMPS,ioos:station:USF.COMPS:C12:1,2016-10-03T15:35:00Z,27.4980,-83.7220,1010.65,1111122 
COMPS,ioos:station:USF.COMPS:C12:1,2016-10-03T16:05:00Z,27.4980,-83.7220,1010.57,1111122 
COMPS,ioos:station:USF.COMPS:C12:1,2016-10-03T16:35:00Z,27.4980,-83.7220,1010.66,1111122 
COMPS,ioos:station:USF.COMPS:C12:1,2016-10-03T17:05:00Z,27.4980,-83.7220,1010.02,1111122 
COMPS,ioos:station:USF.COMPS:C12:1,2016-10-03T17:35:00Z,27.4980,-83.7220,1009.61,1111122 
COMPS,ioos:station:USF.COMPS:C12:1,2016-10-03T18:05:00Z,27.4980,-83.7220,1009.28,1111122 
COMPS,ioos:station:USF.COMPS:C12:1,2016-10-03T18:35:00Z,27.4980,-83.7220,1010.84,1111122 
COMPS,ioos:station:USF.COMPS:C12:1,2016-10-03T19:05:00Z,27.4980,-83.7220,1010.03,1111122 
COMPS,ioos:station:USF.COMPS:C12:1,2016-10-03T19:35:00Z,27.4980,-83.7220,1008.98,1111122 
COMPS,ioos:station:USF.COMPS:C12:1,2016-10-03T20:05:00Z,27.4980,-83.7220,1008.03,1111122 
COMPS,ioos:station:USF.COMPS:C12:1,2016-10-03T20:35:00Z,27.4980,-83.7220,1007.95,1111122 
COMPS,ioos:station:USF.COMPS:C12:1,2016-10-03T21:05:00Z,27.4980,-83.7220,1008.29,1111122 
COMPS,ioos:station:USF.COMPS:C12:1,2016-10-03T21:35:00Z,27.4980,-83.7220,1008.36,1111122 
COMPS,ioos:station:USF.COMPS:C12:1,2016-10-03T22:05:00Z,27.4980,-83.7220,1008.28,1111122 
COMPS,ioos:station:USF.COMPS:C12:1,2016-10-03T22:35:00Z,27.4980,-83.7220,1008.48,1111122 
COMPS,ioos:station:USF.COMPS:C12:1,2016-10-03T23:05:00Z,27.4980,-83.7220,1008.3,1111122 
COMPS,ioos:station:USF.COMPS:C12:1,2016-10-03T23:35:00Z,27.4980,-83.7220,1008.59,1111122 
COMPS,ioos:station:USF.COMPS:C12:1,2016-10-04T00:05:00Z,27.4980,-83.7220,1008.69,1111122 
COMPS,ioos:station:USF.COMPS:C12:1,2016-10-04T00:35:00Z,27.4980,-83.7220,1009.08,1111122 
COMPS,ioos:station:USF.COMPS:C12:1,2016-10-04T01:05:00Z,27.4980,-83.7220,1009.48,1111122 
COMPS,ioos:station:USF.COMPS:C12:1,2016-10-04T01:35:00Z,27.4980,-83.7220,1009.57,1111122 
COMPS,ioos:station:USF.COMPS:C12:1,2016-10-04T02:05:00Z,27.4980,-83.7220,1009.21,1111122 
COMPS,ioos:station:USF.COMPS:C12:1,2016-10-04T02:35:00Z,27.4980,-83.7220,1009.09,1111122 
COMPS,ioos:station:USF.COMPS:C12:1,2016-10-04T03:05:00Z,27.4980,-83.7220,1009.31,1111122 
COMPS,ioos:station:USF.COMPS:C12:1,2016-10-04T03:35:00Z,27.4980,-83.7220,1009.54,1111122 
COMPS,ioos:station:USF.COMPS:C12:1,2016-10-04T04:05:00Z,27.4980,-83.7220,1008.93,1111122 
COMPS,ioos:station:USF.COMPS:C12:1,2016-10-04T04:35:00Z,27.4980,-83.7220,1008.89,1111122 
COMPS,ioos:station:USF.COMPS:C12:1,2016-10-04T05:05:00Z,27.4980,-83.7220,1009.01,1111122 
COMPS,ioos:station:USF.COMPS:C12:1,2016-10-04T05:35:00Z,27.4980,-83.7220,1008.93,1111122 
COMPS,ioos:station:USF.COMPS:C12:1,2016-10-04T06:05:00Z,27.4980,-83.7220,1008.85,1111122 
COMPS,ioos:station:USF.COMPS:C12:1,2016-10-04T06:35:00Z,27.4980,-83.7220,1008.5,1111122 
COMPS,ioos:station:USF.COMPS:C12:1,2016-10-04T07:05:00Z,27.4980,-83.7220,1008.27,1111122 
COMPS,ioos:station:USF.COMPS:C12:1,2016-10-04T07:35:00Z,27.4980,-83.7220,1008.2,1111122 
COMPS,ioos:station:USF.COMPS:C12:1,2016-10-04T08:05:00Z,27.4980,-83.7220,1008.1,1111122 
COMPS,ioos:station:USF.COMPS:C12:1,2016-10-04T08:35:00Z,27.4980,-83.7220,1008.17,1111122 
COMPS,ioos:station:USF.COMPS:C12:1,2016-10-04T09:05:00Z,27.4980,-83.7220,1007.92,1111122 
COMPS,ioos:station:USF.COMPS:C12:1,2016-10-04T09:35:00Z,27.4980,-83.7220,1008.16,1111122 
COMPS,ioos:station:USF.COMPS:C12:1,2016-10-04T10:05:00Z,27.4980,-83.7220,1008.2,1111122 
COMPS,ioos:station:USF.COMPS:C12:1,2016-10-04T10:35:00Z,27.4980,-83.7220,1008.36,1111122 
COMPS,ioos:station:USF.COMPS:C12:1,2016-10-04T11:05:00Z,27.4980,-83.7220,1008.61,1111122 
COMPS,ioos:station:USF.COMPS:C12:1,2016-10-04T11:35:00Z,27.4980,-83.7220,1008.8,1111122 
COMPS,ioos:station:USF.COMPS:C12:1,2016-10-04T12:05:00Z,27.4980,-83.7220,1009.05,1111122 
COMPS,ioos:station:USF.COMPS:C12:1,2016-10-04T12:35:00Z,27.4980,-83.7220,1009.11,1111122 
COMPS,ioos:station:USF.COMPS:C12:1,2016-10-04T13:05:00Z,27.4980,-83.7220,1009.27,1111122 
COMPS,ioos:station:USF.COMPS:C12:1,2016-10-04T13:35:00Z,27.4980,-83.7220,1009.4,1111122 
COMPS,ioos:station:USF.COMPS:C12:1,2016-10-04T14:05:00Z,27.4980,-83.7220,1009.51,1111122 
COMPS,ioos:station:USF.COMPS:C12:1,2016-10-04T14:35:00Z,27.4980,-83.7220,1009.54,1111122 
COMPS,ioos:station:USF.COMPS:C12:1,2016-10-04T15:05:00Z,27.4980,-83.7220,1009.83,1111122 
COMPS,ioos:station:USF.COMPS:C12:1,2016-10-04T15:35:00Z,27.4980,-83.7220,1009.87,1111122 
COMPS,ioos:station:USF.COMPS:C12:1,2016-10-04T16:05:00Z,27.4980,-83.7220,1009.67,1111122 
COMPS,ioos:station:USF.COMPS:C12:1,2016-10-04T16:35:00Z,27.4980,-83.7220,1009.54,1111122 
COMPS,ioos:station:USF.COMPS:C12:1,2016-10-04T17:05:00Z,27.4980,-83.7220,1009.38,1111122 
COMPS,ioos:station:USF.COMPS:C12:1,2016-10-04T17:35:00Z,27.4980,-83.7220,1009.21,1111122 
COMPS,ioos:station:USF.COMPS:C12:1,2016-10-04T18:05:00Z,27.4980,-83.7220,1008.81,1111122 
COMPS,ioos:station:USF.COMPS:C12:1,2016-10-04T18:35:00Z,27.4980,-83.7220,1008.51,1111122 
COMPS,ioos:station:USF.COMPS:C12:1,2016-10-04T19:05:00Z,27.4980,-83.7220,1007.99,1111122 
COMPS,ioos:station:USF.COMPS:C12:1,2016-10-04T19:35:00Z,27.4980,-83.7220,1007.84,1111122 
COMPS,ioos:station:USF.COMPS:C12:1,2016-10-04T20:05:00Z,27.4980,-83.7220,1007.95,1111122 
COMPS,ioos:station:USF.COMPS:C12:1,2016-10-04T20:35:00Z,27.4980,-83.7220,1008.1,1111122 
COMPS,ioos:station:USF.COMPS:C12:1,2016-10-04T21:05:00Z,27.4980,-83.7220,1007.9,1111122 
COMPS,ioos:station:USF.COMPS:C12:1,2016-10-04T21:35:00Z,27.4980,-83.7220,1007.63,1111122 
COMPS,ioos:station:USF.COMPS:C12:1,2016-10-04T22:05:00Z,27.4980,-83.7220,1007.77,1111122 
COMPS,ioos:station:USF.COMPS:C12:1,2016-10-04T22:35:00Z,27.4980,-83.7220,1007.82,1111122 
COMPS,ioos:station:USF.COMPS:C12:1,2016-10-04T23:05:00Z,27.4980,-83.7220,1007.98,1111122 
COMPS,ioos:station:USF.COMPS:C12:1,2016-10-04T23:35:00Z,27.4980,-83.7220,1008.35,1111122 
COMPS,ioos:station:USF.COMPS:C12:1,2016-10-05T00:05:00Z,27.4980,-83.7220,1008.64,1111122 
COMPS,ioos:station:USF.COMPS:C12:1,2016-10-05T00:35:00Z,27.4980,-83.7220,1008.76,1111122 
COMPS,ioos:station:USF.COMPS:C12:1,2016-10-05T01:05:00Z,27.4980,-83.7220,1008.72,1111122 
COMPS,ioos:station:USF.COMPS:C12:1,2016-10-05T01:35:00Z,27.4980,-83.7220,1009.06,1111122 
COMPS,ioos:station:USF.COMPS:C12:1,2016-10-05T02:05:00Z,27.4980,-83.7220,1009.56,1111122 
COMPS,ioos:station:USF.COMPS:C12:1,2016-10-05T02:35:00Z,27.4980,-83.7220,1009.67,1111122 
COMPS,ioos:station:USF.COMPS:C12:1,2016-10-05T03:05:00Z,27.4980,-83.7220,1009.72,1111122 
COMPS,ioos:station:USF.COMPS:C12:1,2016-10-05T03:35:00Z,27.4980,-83.7220,1009.73,1111122 
COMPS,ioos:station:USF.COMPS:C12:1,2016-10-05T04:05:00Z,27.4980,-83.7220,1009.78,1111122 
COMPS,ioos:station:USF.COMPS:C12:1,2016-10-05T04:35:00Z,27.4980,-83.7220,1009.46,1111122 
COMPS,ioos:station:USF.COMPS:C12:1,2016-10-05T05:05:00Z,27.4980,-83.7220,1009.33,1111122 
COMPS,ioos:station:USF.COMPS:C12:1,2016-10-05T05:35:00Z,27.4980,-83.7220,1009.14,1111122 
COMPS,ioos:station:USF.COMPS:C12:1,2016-10-05T06:05:00Z,27.4980,-83.7220,1009.1,1111122 
COMPS,ioos:station:USF.COMPS:C12:1,2016-10-05T06:35:00Z,27.4980,-83.7220,1009.11,1111122 
COMPS,ioos:station:USF.COMPS:C12:1,2016-10-05T07:05:00Z,27.4980,-83.7220,1009.14,1111122 
COMPS,ioos:station:USF.COMPS:C12:1,2016-10-05T07:35:00Z,27.4980,-83.7220,1008.94,1111122 
COMPS,ioos:station:USF.COMPS:C12:1,2016-10-05T08:05:00Z,27.4980,-83.7220,1008.65,1111122 
COMPS,ioos:station:USF.COMPS:C12:1,2016-10-05T08:35:00Z,27.4980,-83.7220,1008.62,1111122 
COMPS,ioos:station:USF.COMPS:C12:1,2016-10-05T09:05:00Z,27.4980,-83.7220,1008.64,1111122 
COMPS,ioos:station:USF.COMPS:C12:1,2016-10-05T09:35:00Z,27.4980,-83.7220,1008.6,1111122 
COMPS,ioos:station:USF.COMPS:C12:1,2016-10-05T10:05:00Z,27.4980,-83.7220,1008.84,1111122 
COMPS,ioos:station:USF.COMPS:C12:1,2016-10-05T10:35:00Z,27.4980,-83.7220,1009.12,1111122 
COMPS,ioos:station:USF.COMPS:C12:1,2016-10-05T11:05:00Z,27.4980,-83.7220,1009.45,1111122 
COMPS,ioos:station:USF.COMPS:C12:1,2016-10-05T11:35:00Z,27.4980,-83.7220,1009.53,1111122 
COMPS,ioos:station:USF.COMPS:C12:1,2016-10-05T12:05:00Z,27.4980,-83.7220,1010.07,1111122 
COMPS,ioos:station:USF.COMPS:C12:1,2016-10-05T12:35:00Z,27.4980,-83.7220,1010.17,1111122 
COMPS,ioos:station:USF.COMPS:C12:1,2016-10-05T13:05:00Z,27.4980,-83.7220,1010.47,1111122 
COMPS,ioos:station:USF.COMPS:C12:1,2016-10-05T13:35:00Z,27.4980,-83.7220,1010.55,1111122 
COMPS,ioos:station:USF.COMPS:C12:1,2016-10-05T14:05:00Z,27.4980,-83.7220,1010.66,1111122 
COMPS,ioos:station:USF.COMPS:C12:1,2016-10-05T14:35:00Z,27.4980,-83.7220,1010.9,1111122 
COMPS,ioos:station:USF.COMPS:C12:1,2016-10-05T15:05:00Z,27.4980,-83.7220,1010.96,1111122 
COMPS,ioos:station:USF.COMPS:C12:1,2016-10-05T15:35:00Z,27.4980,-83.7220,1011.0,1111122 
COMPS,ioos:station:USF.COMPS:C12:1,2016-10-05T16:05:00Z,27.4980,-83.7220,1010.89,1111122 
COMPS,ioos:station:USF.COMPS:C12:1,2016-10-05T16:35:00Z,27.4980,-83.7220,1010.61,1111122 
COMPS,ioos:station:USF.COMPS:C12:1,2016-10-05T17:05:00Z,27.4980,-83.7220,1010.38,1111122 
COMPS,ioos:station:USF.COMPS:C12:1,2016-10-05T17:35:00Z,27.4980,-83.7220,1010.13,1111122 
COMPS,ioos:station:USF.COMPS:C12:1,2016-10-05T18:05:00Z,27.4980,-83.7220,1009.73,1111122 
COMPS,ioos:station:USF.COMPS:C12:1,2016-10-05T18:35:00Z,27.4980,-83.7220,1009.41,1111122 
COMPS,ioos:station:USF.COMPS:C12:1,2016-10-05T19:05:00Z,27.4980,-83.7220,1009.02,1111122 
COMPS,ioos:station:USF.COMPS:C12:1,2016-10-05T19:35:00Z,27.4980,-83.7220,1008.98,1111122 
COMPS,ioos:station:USF.COMPS:C12:1,2016-10-05T20:05:00Z,27.4980,-83.7220,1008.83,1111122 
COMPS,ioos:station:USF.COMPS:C12:1,2016-10-05T20:35:00Z,27.4980,-83.7220,1008.48,1111122 
COMPS,ioos:station:USF.COMPS:C12:1,2016-10-05T21:05:00Z,27.4980,-83.7220,1008.54,1111122 
COMPS,ioos:station:USF.COMPS:C12:1,2016-10-05T21:35:00Z,27.4980,-83.7220,1008.42,1111122 
COMPS,ioos:station:USF.COMPS:C12:1,2016-10-05T22:05:00Z,27.4980,-83.7220,1008.23,1111122 
COMPS,ioos:station:USF.COMPS:C12:1,2016-10-05T22:35:00Z,27.4980,-83.7220,1008.01,1111122 
COMPS,ioos:station:USF.COMPS:C12:1,2016-10-05T23:05:00Z,27.4980,-83.7220,1008.15,1111122 
COMPS,ioos:station:USF.COMPS:C12:1,2016-10-05T23:35:00Z,27.4980,-83.7220,1008.22,1111122 
COMPS,ioos:station:USF.COMPS:C12:1,2016-10-06T00:05:00Z,27.4980,-83.7220,1008.32,1111122 
COMPS,ioos:station:USF.COMPS:C12:1,2016-10-06T00:35:00Z,27.4980,-83.7220,1008.62,1111122 
COMPS,ioos:station:USF.COMPS:C12:1,2016-10-06T01:05:00Z,27.4980,-83.7220,1008.97,1111122 
COMPS,ioos:station:USF.COMPS:C12:1,2016-10-06T01:35:00Z,27.4980,-83.7220,1009.16,1111122 
COMPS,ioos:station:USF.COMPS:C12:1,2016-10-06T02:05:00Z,27.4980,-83.7220,1009.27,1111122 
COMPS,ioos:station:USF.COMPS:C12:1,2016-10-06T02:35:00Z,27.4980,-83.7220,1009.46,1111122 
COMPS,ioos:station:USF.COMPS:C12:1,2016-10-06T03:05:00Z,27.4980,-83.7220,1009.44,1111122 
COMPS,ioos:station:USF.COMPS:C12:1,2016-10-06T03:35:00Z,27.4980,-83.7220,1009.21,1111122 
COMPS,ioos:station:USF.COMPS:C12:1,2016-10-06T04:05:00Z,27.4980,-83.7220,1009.13,1111122 
COMPS,ioos:station:USF.COMPS:C12:1,2016-10-06T04:35:00Z,27.4980,-83.7220,1009.3,1111122 
COMPS,ioos:station:USF.COMPS:C12:1,2016-10-06T05:05:00Z,27.4980,-83.7220,1009.16,1111122 
COMPS,ioos:station:USF.COMPS:C12:1,2016-10-06T05:35:00Z,27.4980,-83.7220,1009.1,1111122 
COMPS,ioos:station:USF.COMPS:C12:1,2016-10-06T06:05:00Z,27.4980,-83.7220,1008.83,1111122 
COMPS,ioos:station:USF.COMPS:C12:1,2016-10-06T06:35:00Z,27.4980,-83.7220,1008.7,1111122 
COMPS,ioos:station:USF.COMPS:C12:1,2016-10-06T07:05:00Z,27.4980,-83.7220,1008.6,1111122 
COMPS,ioos:station:USF.COMPS:C12:1,2016-10-06T07:35:00Z,27.4980,-83.7220,1008.61,1111122 
COMPS,ioos:station:USF.COMPS:C12:1,2016-10-06T08:05:00Z,27.4980,-83.7220,1008.43,1111122 
COMPS,ioos:station:USF.COMPS:C12:1,2016-10-06T08:35:00Z,27.4980,-83.7220,1008.19,1111122 
COMPS,ioos:station:USF.COMPS:C12:1,2016-10-06T09:05:00Z,27.4980,-83.7220,1008.18,1111122 
COMPS,ioos:station:USF.COMPS:C12:1,2016-10-06T09:35:00Z,27.4980,-83.7220,1008.15,1111122 
COMPS,ioos:station:USF.COMPS:C12:1,2016-10-06T10:05:00Z,27.4980,-83.7220,1008.21,1111122 
COMPS,ioos:station:USF.COMPS:C12:1,2016-10-06T10:35:00Z,27.4980,-83.7220,1008.45,1111122 
COMPS,ioos:station:USF.COMPS:C12:1,2016-10-06T11:05:00Z,27.4980,-83.7220,1008.62,1111122 
COMPS,ioos:station:USF.COMPS:C12:1,2016-10-06T11:35:00Z,27.4980,-83.7220,1008.73,1111122 
COMPS,ioos:station:USF.COMPS:C12:1,2016-10-06T12:05:00Z,27.4980,-83.7220,1009.12,1111122 
COMPS,ioos:station:USF.COMPS:C12:1,2016-10-06T12:35:00Z,27.4980,-83.7220,1009.12,1111122 